Weather reports worldwide

Advertisment
Madridejos, Spain (8273): temperature & dewpoint: 16.02.2019 22:00:00 - 22.02.2019 22:00:00 (CET)Madridejos, Spain (8273): wind speed & gusts: 16.02.2019 22:00:00 - 22.02.2019 22:00:00 (CET)Madridejos, Spain (8273): wind direction: 16.02.2019 22:00:00 - 22.02.2019 22:00:00 (CET)Madridejos, Spain (8273): reduced air pressure: 16.02.2019 22:00:00 - 22.02.2019 22:00:00 (CET)Madridejos, Spain (8273): visibility: 16.02.2019 22:00:00 - 22.02.2019 22:00:00 (CET)Madridejos, Spain (8273): sunshine duration: 16.02.2019 22:00:00 - 22.02.2019 22:00:00 (CET)Madridejos, Spain (8273): precipitation: 16.02.2019 22:00:00 - 22.02.2019 22:00:00 (CET)
Date & Time tt [°C] td [°C] ff [km/h] ff [kn] fx [km/h] fx [kn] dd ppp [hPa] vv [km] sd [min] rr [mm]
22.02.2019 22:00:00 7,4 -8,6 6 3 13 7 WNW 1031,2 20 0 0,0
22.02.2019 21:00:00 10,3 -7,8 3 2 14 7 WSW 1030,2 16 0 0,0
22.02.2019 20:00:00 14,3 -8,2 7 4 18 10 E 1028,7 20 0 0,0
22.02.2019 19:00:00 17,0 -8,2 7 4 20 11 E 1027,5 20 34 -
22.02.2019 18:00:00 18,7 -9,4 10 6 22 12 N 1026,9 20 60 0,0
22.02.2019 17:00:00 19,3 -9,0 10 5 20 11 SSE 1026,8 20 60 0,0
22.02.2019 16:00:00 19,6 -9,4 7 4 17 9 SSW 1026,8 20 60 0,0
22.02.2019 15:00:00 19,0 -7,5 6 4 20 11 NW 1027,4 20 60 0,0
22.02.2019 14:00:00 17,5 -3,3 6 3 17 9 SE 1028,5 20 60 0,0
22.02.2019 13:00:00 14,7 -2,7 6 4 27 15 ESE 1030,1 20 60 -
22.02.2019 12:00:00 11,4 -1,7 12 6 24 13 E 1031,6 20 60 0,0
22.02.2019 11:00:00 9,1 -1,0 5 3 17 9 E 1032,2 19 60 0,0
22.02.2019 10:00:00 3,7 -2,0 1 1 13 7 W 1033,9 20 60 0,0
22.02.2019 09:00:00 -2,9 -7,1 3 2 9 5 W 1036,0 8 35 0,0
22.02.2019 08:00:00 -3,4 -8,2 4 2 18 10 W 1035,7 20 0 0,0
22.02.2019 07:00:00 -3,0 -7,8 7 4 10 5 W 1035,6 20 0 -
22.02.2019 06:00:00 -1,9 -7,1 0 0 13 7 N 1035,0 20 0 0,0
22.02.2019 05:00:00 -1,0 -6,4 4 2 18 10 ESE 1034,3 20 0 0,0
22.02.2019 04:00:00 -0,1 -6,4 4 2 16 9 SSE 1034,3 20 0 0,0
22.02.2019 03:00:00 0,6 -6,4 4 2 17 9 SW 1034,2 20 0 0,0
22.02.2019 02:00:00 0,9 -6,4 4 2 16 9 WNW 1034,0 20 0 0,0
22.02.2019 01:00:00 4,3 -5,1 5 3 16 9 NE 1032,5 20 0 -
22.02.2019 00:00:00 5,3 -3,9 6 3 18 10 E 1032,0 20 0 0,0
21.02.2019 23:00:00 7,0 -4,2 4 2 21 11 SSE 1031,2 20 0 0,0
21.02.2019 22:00:00 8,1 -4,2 7 4 10 5 ENE 1030,5 20 0 0,0
21.02.2019 21:00:00 9,3 -4,8 6 3 29 16 ENE 1029,5 20 0 0,0
21.02.2019 20:00:00 11,0 -5,1 12 7 31 17 E 1028,0 20 0 0,0
21.02.2019 19:00:00 14,7 -5,7 10 5 23 12 E 1026,4 20 35 -
21.02.2019 18:00:00 17,0 -6,0 11 6 20 11 E 1025,2 20 60 0,0
21.02.2019 17:00:00 17,7 -5,1 8 5 24 13 SE 1025,1 20 60 0,0
21.02.2019 16:00:00 16,8 -5,1 11 6 37 20 ESE 1025,1 20 60 0,0
21.02.2019 15:00:00 16,3 -2,7 11 6 38 21 ESE 1025,4 20 60 0,0
21.02.2019 14:00:00 14,1 1,1 13 7 34 18 ESE 1026,6 20 60 0,0
21.02.2019 13:00:00 12,4 1,9 8 4 24 13 SE 1027,7 20 60 -
21.02.2019 12:00:00 9,1 1,7 8 5 21 11 E 1028,5 20 60 0,0
21.02.2019 11:00:00 7,0 1,7 2 1 15 8 S 1028,9 18 60 0,0
21.02.2019 10:00:00 3,7 0,6 5 3 12 6 ESE 1029,5 13 60 0,0
21.02.2019 09:00:00 -0,4 -2,2 3 2 13 7 E 1030,3 11 27 0,0
21.02.2019 08:00:00 -2,6 -5,4 0 0 7 4 N 1030,5 17 0 0,0
21.02.2019 07:00:00 -2,1 -5,1 2 1 13 7 NE 1030,1 18 0 -
21.02.2019 06:00:00 -0,9 -4,2 4 2 14 7 E 1029,6 20 0 0,0
21.02.2019 05:00:00 0,1 -3,6 2 1 15 8 SE 1029,1 20 0 0,0
21.02.2019 04:00:00 0,2 -3,6 3 2 16 9 ESE 1029,2 20 0 0,0
21.02.2019 03:00:00 1,2 -2,7 4 2 16 9 S 1028,7 20 0 0,0
21.02.2019 02:00:00 2,1 -2,5 5 3 18 10 NE 1028,3 20 0 0,0
21.02.2019 01:00:00 2,2 -2,7 5 3 18 10 WNW 1027,9 20 0 -
21.02.2019 00:00:00 3,3 -2,7 6 4 20 11 W 1027,4 20 0 0,0
20.02.2019 23:00:00 5,5 -1,7 2 1 18 10 SSW 1026,5 20 0 0,0
20.02.2019 22:00:00 6,4 -1,4 4 2 20 11 NW 1025,6 20 0 0,0
20.02.2019 21:00:00 8,9 -1,2 4 2 12 6 NNW 1024,3 20 0 0,0
20.02.2019 20:00:00 11,9 0,0 7 4 16 9 NNW 1023,0 20 0 0,0
20.02.2019 19:00:00 13,8 0,0 4 2 16 9 N 1021,9 20 0 -
20.02.2019 18:00:00 14,8 0,2 5 3 13 7 NE 1021,4 20 59 0,0
20.02.2019 17:00:00 15,6 0,6 4 2 16 9 NW 1021,1 20 60 0,0
20.02.2019 16:00:00 15,1 0,9 5 3 29 15 NNW 1021,3 20 60 0,0
20.02.2019 15:00:00 14,3 2,9 5 3 28 15 SE 1021,8 20 60 0,0
20.02.2019 14:00:00 11,9 3,6 6 4 22 12 E 1022,9 17 60 0,0
20.02.2019 13:00:00 9,7 3,9 9 5 20 11 SE 1024,2 16 60 -
20.02.2019 12:00:00 5,9 4,3 7 4 17 9 SE 1025,4 8 22 0,0
20.02.2019 11:00:00 3,3 2,1 8 4 15 8 SE 1025,9 2,0 0 0,0
20.02.2019 10:00:00 2,0 0,6 7 4 15 8 ESE 1026,0 0,3 0 0,0
20.02.2019 09:00:00 0,9 -0,7 5 3 10 5 SE 1025,6 0,2 0 0,0
20.02.2019 08:00:00 -1,3 -3,6 2 1 11 6 WSW 1025,3 14 0 0,0
20.02.2019 07:00:00 -0,5 -2,7 2 1 12 7 WSW 1024,8 16 0 -
20.02.2019 06:00:00 1,2 -1,0 3 2 14 7 E 1023,9 15 0 0,0
20.02.2019 05:00:00 0,4 -2,7 8 4 19 10 WNW 1024,4 17 0 0,0
20.02.2019 04:00:00 2,3 -0,7 11 6 14 8 E 1023,6 20 0 0,0
20.02.2019 03:00:00 3,2 -1,2 10 5 14 8 E 1023,4 20 0 0,0
20.02.2019 02:00:00 3,5 -1,0 8 4 12 6 E 1023,3 20 0 0,0
20.02.2019 01:00:00 4,0 -1,0 8 5 18 10 NE 1022,9 20 0 -
20.02.2019 00:00:00 4,0 -0,5 8 4 22 12 ENE 1022,5 20 0 0,0
19.02.2019 23:00:00 5,1 0,0 6 4 21 11 W 1022,0 20 0 0,0
19.02.2019 22:00:00 6,6 0,9 4 2 10 5 WSW 1020,9 20 0 0,0
19.02.2019 21:00:00 8,5 1,5 6 3 21 11 SSW 1020,1 20 0 0,0
19.02.2019 20:00:00 9,2 1,9 9 5 31 17 WSW 1019,5 20 0 0,0
19.02.2019 19:00:00 12,0 -0,3 6 3 16 9 WNW 1018,0 13 0 -
19.02.2019 18:00:00 14,4 0,0 3 1 15 8 ESE 1016,6 20 55 0,0
19.02.2019 17:00:00 14,5 0,4 5 3 18 10 NE 1016,7 20 60 0,0
19.02.2019 16:00:00 14,4 0,6 4 2 29 16 E 1017,1 20 60 0,0
19.02.2019 15:00:00 13,0 1,1 6 4 21 11 NNW 1017,9 20 60 0,0
19.02.2019 14:00:00 11,6 3,0 4 2 21 11 NE 1018,9 19 60 0,0
19.02.2019 13:00:00 8,4 3,8 5 3 19 11 E 1020,6 17 60 -
19.02.2019 12:00:00 4,5 3,0 5 3 15 8 ESE 1022,1 11 19 0,0
19.02.2019 11:00:00 2,8 1,7 4 2 13 7 S 1022,7 0,9 0 0,0
19.02.2019 10:00:00 2,1 0,9 5 3 15 8 SSE 1022,9 0,4 0 0,0
19.02.2019 09:00:00 1,6 0,2 7 4 12 7 ESE 1022,2 0,3 0 0,0
19.02.2019 08:00:00 -1,5 -3,0 1 1 15 8 NW 1022,6 0,2 0 0,0
19.02.2019 07:00:00 -1,2 -3,9 1 1 11 6 WNW 1022,4 0,4 0 -
19.02.2019 06:00:00 -1,6 -4,2 9 5 11 6 W 1022,7 20 0 0,0
19.02.2019 05:00:00 0,2 -2,7 1 1 15 8 SW 1021,9 20 0 0,0
19.02.2019 04:00:00 1,9 -0,5 4 2 15 8 ESE 1021,6 14 0 0,0
19.02.2019 03:00:00 2,0 -0,5 11 6 14 8 ENE 1021,5 20 0 0,0
19.02.2019 02:00:00 3,1 0,4 10 5 19 10 ENE 1021,1 20 0 0,0
19.02.2019 01:00:00 2,9 -1,2 8 5 19 11 NE 1020,8 20 0 -
19.02.2019 00:00:00 4,1 -2,2 5 3 19 11 N 1020,1 20 0 0,0
18.02.2019 23:00:00 5,1 -1,4 4 2 18 10 ENE 1019,6 20 0 0,0
18.02.2019 22:00:00 6,9 -1,0 9 5 22 12 ENE 1018,7 20 0 0,0
18.02.2019 21:00:00 8,2 -1,2 12 6 26 14 E 1017,9 20 0 0,0
18.02.2019 20:00:00 9,8 -1,2 11 6 26 14 E 1017,3 20 0 0,0
18.02.2019 19:00:00 12,9 -1,4 8 4 13 7 NE 1015,8 20 0 -
18.02.2019 18:00:00 14,3 -2,2 4 2 13 7 NE 1015,1 20 17 0,0
18.02.2019 17:00:00 14,7 -1,4 6 3 26 14 SE 1015,1 20 60 0,0
18.02.2019 16:00:00 14,4 -1,0 8 4 32 17 E 1015,2 20 60 0,0
18.02.2019 15:00:00 - - - - - - - - - - -
18.02.2019 14:00:00 - - - - - - - - - - -
18.02.2019 13:00:00 - - - - - - - - - - -
18.02.2019 12:00:00 8,4 2,9 14 7 26 14 ESE 1019,4 20 60 0,0
18.02.2019 11:00:00 6,7 2,9 13 7 38 21 ESE 1019,9 20 60 0,0
18.02.2019 10:00:00 4,7 2,7 16 9 34 18 E 1020,4 19 56 0,0
18.02.2019 09:00:00 1,8 0,4 8 4 16 9 ESE 1021,1 13 1 0,0
18.02.2019 08:00:00 0,2 -1,2 5 3 10 5 ESE 1021,1 3,7 0 0,0
18.02.2019 07:00:00 1,2 -0,3 9 5 16 8 ESE 1021,0 10 0 -
18.02.2019 06:00:00 1,5 -0,5 1 1 11 6 SE 1020,9 0,2 0 0,0
18.02.2019 05:00:00 2,6 0,6 4 2 12 6 ESE 1020,7 9 0 0,0
18.02.2019 04:00:00 2,7 0,9 5 3 15 8 SE 1021,2 12 0 0,0
18.02.2019 03:00:00 2,7 0,2 9 5 14 7 E 1021,5 19 0 0,0
18.02.2019 02:00:00 1,8 -1,7 11 6 13 7 E 1022,1 20 0 0,0
18.02.2019 01:00:00 3,5 -0,5 8 5 17 9 E 1021,5 20 0 -
18.02.2019 00:00:00 4,5 -0,3 8 4 18 10 E 1021,5 20 0 0,0
17.02.2019 23:00:00 5,9 -0,3 11 6 20 11 E 1021,1 20 0 0,0
17.02.2019 22:00:00 7,5 0,0 5 3 21 12 ESE 1020,6 20 0 0,0
17.02.2019 21:00:00 8,9 -0,7 6 3 30 16 E 1020,0 20 0 0,0
17.02.2019 20:00:00 10,9 -4,8 14 8 32 17 E 1019,2 20 0 0,0
17.02.2019 19:00:00 14,8 -8,6 5 3 20 11 SSE 1017,8 20 13 -
17.02.2019 18:00:00 17,0 -9,9 8 4 24 13 S 1017,2 20 60 0,0
17.02.2019 17:00:00 17,5 -10,3 11 6 38 20 SSE 1017,6 20 60 0,0
17.02.2019 16:00:00 17,1 -10,8 16 8 35 19 SSE 1018,2 20 60 0,0
17.02.2019 15:00:00 16,7 -9,4 8 5 36 19 SSE 1019,1 20 60 0,0
17.02.2019 14:00:00 14,8 -7,5 8 4 27 15 SSE 1020,6 20 60 0,0
17.02.2019 13:00:00 12,5 -6,0 11 6 27 15 SE 1022,4 20 60 -
17.02.2019 12:00:00 9,5 -6,4 11 6 23 12 ESE 1023,8 20 60 0,0
17.02.2019 11:00:00 6,1 -5,7 8 4 17 9 SE 1025,1 20 60 0,0
17.02.2019 10:00:00 3,4 -6,0 4 2 10 5 SE 1026,2 20 60 0,0
17.02.2019 09:00:00 -1,0 -6,0 4 2 14 7 SE 1027,5 20 36 0,0
17.02.2019 08:00:00 -1,9 -7,1 2 1 14 7 N 1027,3 20 0 0,0
17.02.2019 07:00:00 -0,2 -6,0 6 4 16 9 SE 1026,8 20 0 -
17.02.2019 06:00:00 0,2 -3,9 6 3 12 6 SE 1026,6 20 0 0,0
17.02.2019 05:00:00 -0,4 -5,1 2 1 13 7 SW 1026,9 20 0 0,0
17.02.2019 04:00:00 1,2 -3,9 3 1 15 8 NE 1026,5 20 0 0,0
17.02.2019 03:00:00 3,1 -3,0 7 4 20 11 SE 1026,2 20 0 0,0
17.02.2019 02:00:00 3,9 -3,0 13 7 29 15 ESE 1026,2 20 0 0,0
17.02.2019 01:00:00 5,1 -3,0 10 6 22 12 SE 1026,2 20 0 -
17.02.2019 00:00:00 5,7 -2,5 8 4 22 12 SE 1026,0 20 0 0,0
16.02.2019 23:00:00 6,8 -2,2 10 5 19 11 ESE 1025,6 20 0 0,0
16.02.2019 22:00:00 8,2 -3,3 8 4 35 19 E 1024,9 20 0 0,0

tt = temperature
td = dewpoint
ff = wind speed
fx = gusts
dd = wind direction
ppp = reduced air pressure
vv = visibility
sd = sunshine duration
rr = precipitation

Next stations